Regional Weather Roundup
Issued by NWS Mt. Holly, NJ

Home | Current Version | Previous Version | Text Only | Print | Product List | Glossary On
Versions: 1 2 3 4 5 6 7 8 9 10 11 12 13 14 15 16 17 18 19 20 21 22 23 24 25 26 27 28 29 30 31 32 33 34 35 36 37 38 39 40 41 42 43 44 45 46 47 48 49 50
000
ASUS41 KPHI 301512
RWRPHI
REGIONAL WEATHER ROUNDUP
NATIONAL WEATHER SERVICE MOUNT HOLLY NJ
1100 AM EDT FRI SEP 30 2016

NOTE:  "FAIR" INDICATES FEW OR NO CLOUDS BELOW 12,000 FEET WITH NO
SIGNIFICANT WEATHER AND/OR OBSTRUCTIONS TO VISIBILITY.

 * = STATION DOES NOT REPORT PRECIPITATION (E.G. RAIN, SNOW, ETC.)
        OR FOG.

NJZ015>026-301600-
SOUTHERN NEW JERSEY

CITY           SKY/WX    TMP DP  RH WIND       PRES   REMARKS
POMONA         LGT RAIN  64  62  93 NE24G33   30.17F FOG
WILDWOOD*      LGT RAIN  66  65  96 NE18G28   30.15  FOG
MILLVILLE      LGT RAIN  65  65 100 NE14G23   30.18R FOG
WRIGHTSTOWN    CLOUDY    62  60  94 NE22      30.20F
MOUNT HOLLY    CLOUDY    61  58  90 NE12G23   30.22F
TRENTON        CLOUDY    57  54  89 NE14G22   30.25S

$$
NJZ001>014-301600-
NORTHERN NEW JERSEY

CITY           SKY/WX    TMP DP  RH WIND       PRES   REMARKS
SUSSEX         LGT RAIN  54  51  90 NE9       30.35S
ANDOVER*         N/A     53  52  96 VRB7      30.32F
MORRISTOWN     LGT RAIN  54  54 100 NE8G15    30.32S
NEWARK         LGT RAIN  57  54  89 NE15G28   30.30S FOG
TETERBORO      DRIZZLE   59  52  77 NE8G21    30.30F
CALDWELL       CLOUDY    57  53  86 VRB7      30.32S
SOMERVILLE     LGT RAIN  56  52  86 NE13G21   30.27F
ALLAIRE*       RAIN      61  60  97 NE17G23   30.26F FOG
TOMS RIVER*    LGT RAIN  63  62  97 NE15G28   30.24F FOG

$$
PAZ043-044-047-054-055-060>062-066>071-301600-
EASTERN PENNSYLVANIA

CITY           SKY/WX    TMP DP  RH WIND       PRES   REMARKS
PHILADELPHIA   CLOUDY    60  57  89 NE14G23   30.23S
NORTH PHILA    CLOUDY    59  57  93 NE15      30.26S
BLUE BELL*     CLOUDY    54  54 100 NE9       30.25S
DOYLESTOWN     CLOUDY    56  54  93 NE9G23    30.26F
QUAKERTOWN*    CLOUDY    55  54  94 NE10G16   30.28S
PERKASIE*      CLOUDY    54  54 100 NE18G24   30.27F
POTTSTOWN      CLOUDY    55  53  93 NE7G17    30.28R
LANCASTER      CLOUDY    57  55  93 E14G24    30.24F
COATESVILLE    CLOUDY    55  54  94 NE8G22    30.25S
READING        CLOUDY    55  51  86 N9        30.26S
ALLENTOWN      CLOUDY    55  51  86 E22G28    30.28F FOG
MOUNT POCONO   LGT RAIN  48  46  93 E17G30    30.31F FOG
HAZLETON       DRIZZLE   54  52  94 E10G18    30.31F
LEHIGHTON      RAIN      52  50  93 E7        30.30F
WILKES BARRE   LGT RAIN  53  50  89 NE9       30.32R

$$
DEZALL-MDZ008-012-015-019-020-301600-
DELAWARE AND EASTERN MARYLAND

CITY           SKY/WX    TMP DP  RH WIND       PRES   REMARKS
WILMINGTON     CLOUDY    60  56  86 NE17      30.22R
DOVER          CLOUDY    66  66 100 NE17G28   30.15S
GEORGETOWN     LGT RAIN  68  68 100 NE18G26   30.14R
ABERDEEN       DRIZZLE   61  59  94 NE16      30.20S FOG
PATUXENT       CLOUDY    70  66  87 NE16G22   30.11S
OCEAN CITY     CLOUDY   N/A N/A N/A E13G20    30.11R
WALLOPS ISLAND CLOUDY    72  72 100 NE13      30.10R FOG
SALISBURY      LGT RAIN  71  70  96 NE9       30.11S FOG

$$
PAZ001-021-NYZ056-072-MDZ011-DCZ001-301600-
OTHER NEARBY LOCATIONS

CITY           SKY/WX    TMP DP  RH WIND       PRES   REMARKS
HARRISBURG     CLOUDY    56  54  93 E9        30.25F
STATE COLLEGE  RAIN      52  52 100 NE8       30.27S
WILLIAMSPORT   LGT RAIN  56  55  97 NW3       30.28F FOG
BINGHAMTON     LGT RAIN  47  46  97 E6        30.36R
NEW YORK CITY  CLOUDY    58  54  86 NE10G21   30.33S FOG
BALTIMORE      DRIZZLE   60  59  96 NE14G22   30.18F FOG
WASHINGTON DC  CLOUDY    64  62  93 NE16      30.17S

$$



USA.gov is the U.S. government's official web portal to all federal, state and local government web resources and services.